STARLINK-32408, 62054

Orbit data source: Space-Track

STARLINK-32408, 62054 is a payload satellite owned by SpaceX/Seattle (US) in LEO that was launched on Thu, 21 Nov 2024 UTC via an FALCON 9 launch vehicle from the Air Force Eastern Test Range (AFETR). Payloads include a variety of satellites, spacecraft, and rockets equipped with specific instruments for various scientific and technological missions. These include communications satellites like Starlink; space stations such as the ISS; scientific satellites like the Hubble; Earth observation satellites from companies like Planet Labs, Umbra, and HawkEye 360; GPS; miniature CubeSats for education and research; and military/defense satellites.

Loading next visibility...
STARLINK-32408 details
Identifier
62054, 2024-216Y
Orbit
LEO
Last TLE update10 hours ago
Origin
Flag of USSpaceX/Seattle (US)
ManufacturerSpaceX/Seattle
MissionOperational spacecraft
Bus & MotorSTARLINK V2M, Unknown motor
Mass730 kg wet, ~700 kg dry
Launch date (UTC)
2024-11-21 (1 month ago)
Launch vehicle
FALCON 9
Launch site
Air Force Eastern Test Range (AFETR)
Object type
Payload
Rocket body
Debris
Shape & HBRUnknown
Radar Cross SectionLarge (>1 m²)

Expand to show TLE details & history

TLE from 10 hours ago
0 STARLINK-32408
1 62054U 24216Y   24361.04097363 -.00000956  00000-0 -15616-4 0  9995
2 62054  43.0011 234.8943 0001113 267.4541  92.6188 15.40701854  5381
Epoch: 2024-12-26T00:59Z
Definitive object data (Epoch: 2024-12-26T00:59:00.121Z)
Latitude-0.00003°
Longitude125.11769°
Altitude443.846 km
Speed7.648 km/s
True Right ascension15h 39m 34s
True Declination0° 00' 00"
Sunlit
Object was in daylight at TLE epoch
Visualization TLE readout
Latitude29.11984°
Longitude-93.70672°
Altitude445.011 km
Speed7.649 km/s
Apparent Right ascension23h 48m 28s
Apparent Declination-4° 20' 07"
Sunlit
Object is in daylight
Visualization observer readout
Local Sidereal Time10:15:17
Azimuth323.333° NNW
Elevation-48.672°
Doppler factor1
Orbital elements
Apogee altitude446.752 km
Perigee altitude445.233 km
Semi-major axis6,824.13 km
Eccentricity0.0001113
Inclination43.0011°
RAAN234.8943°
Arg. of periapsis267.4541°
True anomaly92.63154°
Mean anomaly92.6188°
Eccentric anomaly92.62517°
Mean motion3.8501 °/min
BSTAR-0.000015616
Orbital period93.5 mins
Loading maneuver chart data...
Loading historical data...
Loading historical data...
Loading historical data...
Loading historical data...
Loading historical data...
Loading historical data...
Loading historical data...

STARLINK-32408 Visibility forecast

Observer location: undefined°, undefined

Span
Click to sort rows by Start time (UTC) header in descending order
Start Az.
Max El. time (UTC)
Max El. Az.
Max El.
End time (UTC)
End Az.
4 mins2024-12-26 18:17:01.610Z179.339° S2024-12-26 18:19:01.610Z141.827° SSE15.698°2024-12-26 18:21:01.610Z105.543° ESE
5 mins2024-12-26 19:55:01.610Z238.795° WSW2024-12-26 19:57:01.610Z102.436° ESE41.948°2024-12-26 20:00:01.610Z73.752° E
5 mins2024-12-26 21:33:01.610Z290.35° WNW2024-12-26 21:35:01.610Z10.567° NNE37.231°2024-12-26 21:38:01.610Z72.455° E
5 mins2024-12-26 23:11:01.610Z293.929° NW2024-12-26 23:13:01.610Z359.562° N42.911°2024-12-26 23:16:01.610Z96.847° ESE
5 mins2024-12-27 00:49:01.610Z263.968° W2024-12-27 00:51:01.610Z211.325° SW28.195°2024-12-27 00:54:01.610Z146.733° SSE
|